When you browse on this site, cookies collect data to enhance your experience and personalize the content and advertising you see.
Visit our Privacy Policy to learn more. By continuing to use the site, you agree to this use of cookies and data.
EN

Hourly Weather Codlea

Today, 4 July, Saturday

Time Temperature Precipitation Wind Pressure Humidity
00:00 +18°C° 0 mm 1 mps 697 mmHg 89%
01:00 +18°C° 0 mm 1 mps 697 mmHg 90%
02:00 +16°C° 0 mm 0 mps 697 mmHg 91%
03:00 +16°C° 0.1 mm 0 mps 697 mmHg 92%
04:00 +16°C° 0.1 mm 0 mps 697 mmHg 92%
05:00 +15°C° 0.1 mm 0 mps 697 mmHg 93%
06:00 +17°C° 0.3 mm 0 mps 698 mmHg 91%
07:00 +20°C° 0.3 mm 1 mps 698 mmHg 89%
08:00 +22°C° 0 mm 1 mps 699 mmHg 87%
09:00 +23°C° 1.2 mm 1 mps 699 mmHg 85%
10:00 +24°C° 1.2 mm 1 mps 699 mmHg 83%
11:00 +25°C° 1.2 mm 1 mps 699 mmHg 81%
12:00 +25°C° 2.4 mm 1 mps 699 mmHg 81%
13:00 +25°C° 2.4 mm 1 mps 699 mmHg 82%
14:00 +24°C° 0 mm 1 mps 699 mmHg 83%
15:00 +24°C° 2.7 mm 1 mps 699 mmHg 84%
16:00 +23°C° 2.7 mm 1 mps 699 mmHg 86%
17:00 +23°C° 2.7 mm 1 mps 698 mmHg 87%
18:00 +22°C° 1.4 mm 1 mps 698 mmHg 89%
19:00 +21°C° 1.4 mm 1 mps 698 mmHg 92%
20:00 +20°C° 1.4 mm 1 mps 698 mmHg 94%
21:00 +19°C° 0.4 mm 1 mps 698 mmHg 94%
22:00 +18°C° 0.4 mm 1 mps 698 mmHg 94%
23:00 +16°C° 0.4 mm 0 mps 698 mmHg 95%

Tomorrow, 5 July, Sunday

Time Temperature Precipitation Wind Pressure Humidity
00:00 +16°C° 0.3 mm 0 mps 698 mmHg 95%
01:00 +15°C° 0.3 mm 0 mps 699 mmHg 96%
02:00 +15°C° 0.3 mm 0 mps 699 mmHg 97%
03:00 +15°C° 0 mm 0 mps 699 mmHg 97%
04:00 +16°C° 0 mm 0 mps 699 mmHg 97%
05:00 +16°C° 0 mm 0 mps 699 mmHg 97%
06:00 +19°C° 0 mm 1 mps 699 mmHg 95%
07:00 +19°C° 0 mm 1 mps 699 mmHg 94%
08:00 +20°C° 0 mm 1 mps 699 mmHg 92%
09:00 +22°C° 0.3 mm 1 mps 700 mmHg 87%
10:00 +23°C° 0.3 mm 1 mps 700 mmHg 82%
11:00 +24°C° 0.3 mm 1 mps 700 mmHg 77%
12:00 +25°C° 0.4 mm 1 mps 700 mmHg 74%
13:00 +26°C° 0.4 mm 1 mps 700 mmHg 71%
14:00 +26°C° 0.4 mm 1 mps 700 mmHg 68%
15:00 +25°C° 1.4 mm 1 mps 699 mmHg 73%
16:00 +25°C° 1.4 mm 1 mps 699 mmHg 78%
17:00 +24°C° 1.4 mm 1 mps 699 mmHg 84%
18:00 +23°C° 0.7 mm 1 mps 699 mmHg 86%
19:00 +22°C° 0.7 mm 1 mps 699 mmHg 89%
20:00 +21°C° 0.7 mm 1 mps 698 mmHg 92%
21:00 +20°C° 0 mm 1 mps 699 mmHg 92%
22:00 +17°C° 0 mm 0 mps 699 mmHg 93%
23:00 +17°C° 0 mm 0 mps 699 mmHg 93%

Day after tomorrow, 6 July, Monday

Time Temperature Precipitation Wind Pressure Humidity
00:00 +16°C° 0 mm 0 mps 699 mmHg 94%
01:00 +16°C° 0 mm 0 mps 699 mmHg 95%
02:00 +16°C° 0 mm 0 mps 698 mmHg 95%
03:00 +15°C° 0 mm 0 mps 698 mmHg 95%
04:00 +15°C° 0 mm 0 mps 698 mmHg 96%
05:00 +15°C° 0 mm 0 mps 698 mmHg 96%
06:00 +17°C° 0 mm 0 mps 698 mmHg 93%
07:00 +20°C° 0 mm 1 mps 698 mmHg 90%
08:00 +22°C° 0 mm 1 mps 698 mmHg 87%
09:00 +23°C° 0.2 mm 1 mps 698 mmHg 81%
10:00 +24°C° 0.2 mm 1 mps 698 mmHg 76%
11:00 +25°C° 0.2 mm 1 mps 698 mmHg 71%
12:00 +26°C° 0.6 mm 1 mps 698 mmHg 69%
13:00 +26°C° 0.6 mm 1 mps 697 mmHg 68%
14:00 +27°C° 0.6 mm 1 mps 697 mmHg 66%
15:00 +26°C° 0.8 mm 1 mps 697 mmHg 70%
16:00 +26°C° 0.8 mm 1 mps 696 mmHg 74%
17:00 +25°C° 0.8 mm 1 mps 696 mmHg 78%
18:00 +24°C° 0.8 mm 1 mps 695 mmHg 81%
19:00 +22°C° 0.8 mm 1 mps 695 mmHg 84%
20:00 +21°C° 0.8 mm 1 mps 695 mmHg 87%
21:00 +20°C° 0.3 mm 1 mps 695 mmHg 88%
22:00 +19°C° 0.3 mm 1 mps 695 mmHg 89%
23:00 +19°C° 0.3 mm 1 mps 694 mmHg 90%

7 July, Tuesday

Time Temperature Precipitation Wind Pressure Humidity
00:00 +18°C° 0.2 mm 1 mps 694 mmHg 90%
01:00 +18°C° 0.2 mm 1 mps 694 mmHg 90%
02:00 +18°C° 0.2 mm 1 mps 694 mmHg 91%
03:00 +18°C° 0 mm 1 mps 693 mmHg 91%
04:00 +18°C° 0 mm 1 mps 693 mmHg 91%
05:00 +16°C° 0 mm 1 mps 693 mmHg 91%
06:00 +19°C° 0.2 mm 1 mps 693 mmHg 90%
07:00 +18°C° 0.2 mm 0 mps 693 mmHg 88%
08:00 +20°C° 0.2 mm 0 mps 694 mmHg 86%
09:00 +22°C° 1.2 mm 1 mps 694 mmHg 84%
10:00 +23°C° 1.2 mm 1 mps 694 mmHg 82%
11:00 +24°C° 1.2 mm 1 mps 694 mmHg 80%
12:00 +24°C° 1.7 mm 2 mps 694 mmHg 82%
13:00 +23°C° 1.7 mm 2 mps 694 mmHg 85%
14:00 +23°C° 1.7 mm 2 mps 694 mmHg 87%
15:00 +21°C° 1.2 mm 2 mps 694 mmHg 89%
16:00 +20°C° 1.2 mm 2 mps 694 mmHg 90%
17:00 +20°C° 1.2 mm 2 mps 694 mmHg 92%
18:00 +19°C° 0.5 mm 2 mps 694 mmHg 94%
19:00 +18°C° 0.5 mm 3 mps 695 mmHg 96%
20:00 +16°C° 0.5 mm 3 mps 695 mmHg 97%
21:00 +16°C° 0.4 mm 3 mps 695 mmHg 97%
22:00 +15°C° 0.4 mm 2 mps 695 mmHg 97%
23:00 +14°C° 0.4 mm 2 mps 696 mmHg 98%

8 July, Wednesday

Time Temperature Precipitation Wind Pressure Humidity
00:00 +14°C° 0.4 mm 2 mps 696 mmHg 98%
01:00 +13°C° 0.4 mm 2 mps 696 mmHg 98%
02:00 +13°C° 0.4 mm 2 mps 696 mmHg 98%
03:00 +13°C° 0.1 mm 2 mps 696 mmHg 97%
04:00 +12°C° 0.1 mm 2 mps 696 mmHg 97%
05:00 +12°C° 0.1 mm 2 mps 697 mmHg 97%
06:00 +12°C° 0.4 mm 2 mps 697 mmHg 97%
07:00 +12°C° 0.4 mm 2 mps 697 mmHg 97%
08:00 +12°C° 0.4 mm 2 mps 698 mmHg 96%
09:00 +13°C° 0.4 mm 2 mps 698 mmHg 96%
10:00 +13°C° 0.4 mm 1 mps 698 mmHg 96%
11:00 +13°C° 0.4 mm 1 mps 699 mmHg 96%
12:00 +14°C° 0 mm 1 mps 699 mmHg 94%
13:00 +14°C° 0 mm 1 mps 699 mmHg 92%
14:00 +15°C° 0 mm 1 mps 699 mmHg 90%
15:00 +15°C° 0 mm 1 mps 699 mmHg 88%
16:00 +16°C° 0 mm 1 mps 699 mmHg 86%
17:00 +16°C° 0 mm 2 mps 699 mmHg 84%
18:00 +16°C° 0 mm 1 mps 700 mmHg 87%
19:00 +15°C° 0 mm 1 mps 700 mmHg 89%
20:00 +15°C° 0 mm 1 mps 700 mmHg 91%
21:00 +15°C° 0 mm 1 mps 700 mmHg 92%
22:00 +14°C° 0 mm 1 mps 700 mmHg 92%
23:00 +14°C° 0 mm 1 mps 700 mmHg 92%

9 July, Thursday

Time Temperature Precipitation Wind Pressure Humidity
00:00 +14°C° 0 mm 1 mps 700 mmHg 92%
01:00 +14°C° 0 mm 1 mps 701 mmHg 92%
02:00 +14°C° 0 mm 1 mps 701 mmHg 92%
03:00 +14°C° 0 mm 1 mps 701 mmHg 93%
04:00 +14°C° 0 mm 1 mps 701 mmHg 94%
05:00 +13°C° 0 mm 1 mps 701 mmHg 95%
06:00 +14°C° 0 mm 1 mps 701 mmHg 91%
07:00 +16°C° 0 mm 1 mps 702 mmHg 87%
08:00 +17°C° 0 mm 2 mps 702 mmHg 83%
09:00 +18°C° 0 mm 2 mps 702 mmHg 79%
10:00 +19°C° 0 mm 2 mps 703 mmHg 75%
11:00 +20°C° 0 mm 2 mps 703 mmHg 71%
12:00 +20°C° 0.1 mm 2 mps 703 mmHg 69%
13:00 +21°C° 0.1 mm 2 mps 703 mmHg 66%
14:00 +23°C° 0.1 mm 2 mps 703 mmHg 63%
15:00 +23°C° 0.1 mm 2 mps 702 mmHg 64%
16:00 +23°C° 0.1 mm 2 mps 702 mmHg 64%
17:00 +23°C° 0.1 mm 2 mps 702 mmHg 65%
18:00 +20°C° 0.1 mm 2 mps 702 mmHg 73%
19:00 +19°C° 0.1 mm 1 mps 702 mmHg 81%
20:00 +16°C° 0.1 mm 1 mps 701 mmHg 90%
21:00 +16°C° 0 mm 1 mps 702 mmHg 90%
22:00 +14°C° 0 mm 0 mps 702 mmHg 91%
23:00 +13°C° 0 mm 0 mps 702 mmHg 91%
Show more